Temperature
24 23 23 23 20 20 23 24 25 26 26 26 26 25 23 22 22 21 21 20 20 20 20 20 20 20 20 20 20 20 19 19 19 19 19 19 19 19 19 19 19 19 19 19 19 19 19 18 18
24 24 24 23 20 21 24 24 25 27 27 26 26 25 23 22 22 21 20 20 20 21 20 20 20 20 20 20 20 20 20 19 19 19 19 19 19 19 19 19 19 19 19 19 19 19 19 19 18
24 24 24 21 22 22 24 25 26 28 28 27 26 25 24 22 22 21 21 20 20 20 20 20 20 20 20 19 19 19 19 19 19 19 19 19 19 18 18 19 19 19 19 19 19 19 19 19 18
24 24 24 21 24 25 25 25 26 27 27 26 25 24 23 22 22 22 21 20 20 20 20 20 20 20 19 19 19 19 19 19 19 19 19 19 18 18 18 18 19 19 18 18 18 18 19 19 19
24 24 21 22 24 25 26 27 27 26 26 25 25 22 22 22 22 21 21 21 21 20 20 20 20 20 19 19 19 19 19 19 19 19 19 19 18 18 18 18 18 18 18 18 18 18 18 19 18
24 21 21 22 23 25 27 28 28 26 25 25 24 22 22 22 21 21 21 21 21 20 20 20 20 20 19 19 19 19 19 19 19 19 19 18 18 18 18 18 18 18 18 18 18 18 18 18 18
24 21 21 22 22 25 27 28 28 26 25 25 25 22 22 21 21 21 21 21 20 20 20 20 20 20 19 19 19 19 19 19 19 19 19 18 18 18 18 18 18 18 18 18 18 18 18 18 18
25 21 22 22 23 25 27 29 29 28 26 26 25 22 22 22 21 21 21 21 20 20 20 20 20 20 19 19 19 19 19 19 19 19 18 18 18 18 18 18 18 18 18 18 18 18 18 18 18
25 20 21 22 22 24 26 28 29 29 28 26 26 25 24 22 22 21 21 21 20 20 20 20 20 20 19 19 19 19 19 19 19 19 18 18 18 18 18 18 18 18 18 18 18 18 18 18 17
23 21 22 22 22 23 25 27 28 28 26 25 25 25 23 22 22 22 21 21 21 20 20 20 20 20 19 19 19 19 19 19 19 19 18 18 18 18 18 19 18 18 18 18 18 17 17 17 17
23 22 22 22 23 24 25 27 28 27 25 25 25 24 23 23 22 22 22 22 22 21 21 20 20 20 20 20 19 19 19 19 19 18 18 18 18 18 18 18 18 18 18 18 18 17 17 17 17
24 24 24 24 25 25 26 27 28 28 28 27 26 25 24 23 23 23 23 22 22 21 21 21 20 20 20 20 19 19 19 19 19 18 18 18 18 18 18 18 18 18 18 18 18 17 17 17 17
24 25 26 26 26 26 27 27 27 28 28 27 26 25 24 24 24 24 24 23 22 22 21 21 21 21 20 20 19 19 19 19 19 18 18 18 18 17 17 18 18 18 18 18 17 17 18 18 17
24 25 25 26 26 26 25 26 26 27 27 26 25 25 25 25 25 24 23 23 22 22 22 21 21 21 21 20 20 20 19 19 19 18 18 17 17 17 17 17 18 18 18 17 17 17 18 17 17
25 24 24 24 24 24 25 24 24 25 26 26 25 25 25 25 25 25 24 24 23 23 22 22 22 21 21 20 20 20 20 19 19 19 18 18 17 17 17 17 18 18 18 17 17 17 18 17 17
23 23 22 22 22 23 24 23 23 23 24 24 25 25 25 25 25 25 25 24 24 23 23 22 22 21 21 21 20 20 20 19 19 19 18 18 18 18 18 17 17 17 17 17 17 17 18 17 17
21 21 21 21 21 22 22 22 22 22 23 23 24 24 24 25 25 25 25 25 24 24 23 23 22 22 22 21 20 20 20 20 19 19 18 18 18 18 18 18 18 17 17 17 17 17 17 17 17
20 20 20 20 20 21 20 20 20 21 22 22 23 24 24 25 26 26 26 25 25 24 24 23 22 22 22 21 20 20 20 19 19 19 19 18 18 18 18 18 18 17 17 17 17 17 17 17 17
19 19 19 20 20 20 19 19 20 21 21 22 23 24 24 25 26 26 26 25 25 24 24 23 22 22 21 21 20 20 20 19 19 19 19 18 18 18 18 18 18 17 17 17 17 17 17 17 17
20 19 19 20 20 20 19 19 20 20 21 22 23 23 24 24 25 25 25 25 25 25 24 23 22 22 21 21 20 20 20 19 19 19 18 18 18 18 18 18 18 17 17 17 17 17 17 17 16
20 19 19 19 19 19 18 18 19 20 21 22 23 23 24 25 25 25 25 25 25 25 24 23 22 22 21 20 20 19 19 19 19 18 18 18 18 18 17 17 17 17 17 17 17 17 17 17 16
19 20 20 19 18 17 18 16 17 18 19 20 21 22 23 24 25 24 24 24 24 24 23 23 22 22 21 20 20 20 19 19 18 18 18 18 17 17 17 17 17 17 17 17 17 17 17 17 17
20 20 19 19 17 16 17 16 17 17 18 19 20 21 22 24 24 23 23 23 23 23 22 22 22 21 21 21 20 20 19 18 18 18 17 17 17 17 17 17 17 16 16 16 16 16 16 17 16
20 19 18 16 15 16 17 16 16 16 17 18 19 20 21 22 22 22 22 22 22 21 21 21 21 21 22 21 21 20 19 18 18 18 18 18 17 17 17 17 17 16 16 16 16 16 16 16 16
19 17 16 16 15 15 17 17 16 16 17 17 17 17 19 20 21 21 21 21 21 21 21 21 22 22 22 21 21 20 19 18 18 18 18 17 17 17 17 16 16 16 16 16 16 16 16 15 16
19 17 16 15 15 16 17 16 15 16 16 16 16 16 17 18 19 19 20 21 21 21 21 21 21 22 21 21 20 19 19 18 18 18 17 17 17 17 16 16 16 16 16 15 15 15 15 15 15
17 16 16 15 15 15 16 16 16 16 16 16 15 15 15 15 17 18 18 19 20 20 21 21 21 21 21 20 19 19 18 18 18 17 17 17 17 16 16 16 16 15 15 15 15 15 15 15 15
15 14 13 14 15 15 16 15 14 14 14 15 15 15 14 15 16 17 17 18 19 20 21 21 21 21 20 20 19 19 19 18 18 17 17 17 17 16 16 16 16 15 15 15 15 15 15 15 15
14 13 12 12 13 14 14 14 14 13 14 14 14 14 14 15 16 16 17 18 19 20 20 20 20 20 20 19 19 19 18 18 18 18 18 17 17 16 16 16 16 15 15 15 15 15 15 14 14
14 13 12 12 12 13 14 13 14 13 14 14 14 15 16 16 17 17 17 18 19 19 20 20 20 20 20 19 19 19 18 18 18 18 18 17 17 17 16 16 16 16 15 15 15 15 14 14 14
Wind_Speed
8 5 3 3 5 5 3 3 5 3 4 6 9 11 9 6 4 5 5 14 16 15 14 16 15 14 13 13 12 12 12 13 13 14 15 14 14 13 13 13 12 12 12 12 12 12 12 11 11
5 2 3 4 5 4 0 3 5 3 7 10 9 8 8 5 5 8 7 14 17 16 14 15 16 14 13 13 13 13 13 13 14 15 15 14 13 13 13 12 12 12 12 12 13 13 12 11 9
4 1 2 4 3 5 4 5 6 3 6 8 5 5 7 7 6 6 12 18 16 13 14 15 16 15 14 13 13 13 13 13 14 15 15 14 13 12 12 12 11 11 12 12 11 11 11 10 9
1 4 5 5 1 4 7 6 6 6 6 7 7 6 5 5 6 10 19 18 16 14 14 16 16 15 14 13 13 13 13 13 14 14 14 14 13 12 12 11 11 11 11 10 10 9 9 9 8
3 5 6 4 4 2 2 3 5 7 6 5 8 6 4 3 12 19 19 17 15 12 13 15 16 15 14 13 13 13 13 13 13 14 14 14 13 12 11 11 10 10 10 9 9 8 7 6 6
4 5 4 3 6 4 1 2 5 7 8 7 8 7 3 6 12 16 17 15 14 14 11 14 15 14 13 13 13 13 13 13 13 14 14 14 13 12 11 10 10 9 9 9 9 7 5 3 3
4 4 1 3 5 4 2 4 7 8 9 7 9 7 5 6 10 15 15 14 13 12 10 9 12 13 13 13 13 13 13 13 13 14 14 13 12 11 10 10 10 9 9 9 9 7 5 2 0
5 5 1 3 5 5 2 2 6 8 8 9 8 9 8 10 12 14 14 12 12 10 11 9 10 11 11 12 13 13 14 14 13 14 14 13 12 11 10 9 9 10 10 9 8 6 5 3 1
5 5 2 2 4 6 4 2 0 5 7 5 5 7 12 17 16 15 11 8 10 11 9 10 8 9 10 11 13 14 14 14 14 14 14 13 11 10 9 9 9 9 9 8 6 5 3 2 2
5 4 5 4 4 6 7 2 1 5 6 5 7 9 17 18 18 17 16 14 13 13 12 10 10 9 9 10 11 11 11 13 13 12 13 11 10 9 9 10 9 9 8 6 5 3 3 3 4
5 6 5 6 9 7 5 4 1 6 4 8 15 18 18 17 17 18 17 16 16 15 14 13 12 10 9 6 8 7 8 10 11 12 13 11 9 8 8 7 6 6 6 4 2 3 5 5 2
2 5 5 7 8 5 4 4 3 4 7 14 21 23 22 20 19 18 18 17 14 14 15 15 15 13 10 8 7 7 6 6 6 10 13 10 5 5 6 5 5 5 4 3 3 3 4 6 4
3 4 3 3 4 6 5 6 4 5 3 13 18 20 21 21 19 17 17 17 15 16 15 16 16 15 12 10 7 7 6 7 9 10 12 12 6 7 5 4 6 6 6 4 3 3 2 4 6
5 7 7 4 4 3 5 8 5 6 3 10 17 19 20 21 19 15 15 16 16 17 16 16 17 16 14 11 9 9 8 9 10 10 13 15 12 8 6 5 4 6 7 6 3 3 3 5 6
5 7 8 5 5 4 4 7 6 7 6 3 12 15 17 18 18 18 20 19 19 18 17 16 17 16 16 13 12 9 8 9 7 9 14 17 16 13 8 7 6 6 9 5 4 4 4 5 5
5 4 4 5 7 7 1 8 5 6 7 4 5 9 13 15 17 18 20 19 18 17 18 18 17 16 16 13 11 8 7 7 7 9 11 15 18 18 11 8 8 9 8 4 5 4 4 4 4
4 3 4 4 5 5 2 6 7 7 6 4 3 5 9 12 13 15 18 20 19 19 19 18 15 17 16 13 10 9 7 7 6 8 8 10 13 16 12 9 8 9 5 4 6 4 4 4 4
4 4 5 5 4 4 3 7 10 6 5 5 4 4 6 10 12 14 18 20 19 19 19 18 14 15 13 9 6 5 6 6 4 5 6 7 7 10 9 6 8 7 5 5 5 5 4 4 5
4 4 6 6 3 3 6 9 11 8 6 6 6 6 7 9 10 9 16 19 17 16 15 14 12 12 11 7 6 6 5 5 4 4 5 6 6 7 5 5 6 6 7 8 8 5 5 3 3
5 5 6 5 3 4 7 11 11 9 7 7 7 8 9 9 7 6 12 15 16 16 14 13 12 12 11 8 5 4 4 3 3 4 4 6 6 6 5 5 5 5 5 8 8 6 5 3 3
5 6 6 6 3 3 5 9 8 7 6 7 8 8 8 10 10 8 11 12 13 14 15 13 12 11 10 9 6 5 4 3 2 3 4 4 5 6 6 6 6 5 5 7 8 8 8 6 3
7 8 7 3 1 4 2 6 9 8 8 8 7 5 6 6 7 8 9 11 11 11 11 12 12 11 10 10 9 8 5 5 5 4 4 4 4 5 7 6 7 6 5 6 8 8 6 7 5
6 4 3 3 2 3 2 3 9 7 9 10 9 6 5 4 9 10 10 11 10 10 10 10 10 9 9 8 9 8 5 4 3 3 4 5 4 4 5 6 6 7 6 7 7 7 7 6 6
3 5 5 5 4 3 5 5 5 6 10 15 14 12 7 2 8 11 12 13 12 10 8 8 8 7 7 8 7 7 7 6 4 4 3 3 3 2 4 5 6 7 6 7 7 7 8 7 6
8 6 5 5 2 6 5 3 1 8 13 15 17 16 10 6 4 8 12 13 13 13 11 9 8 7 7 7 7 7 7 6 6 5 4 4 2 2 3 4 5 5 6 7 6 7 8 8 8
5 3 3 3 4 5 4 2 3 9 12 16 17 17 15 11 6 4 5 9 11 11 11 10 9 8 7 7 6 5 6 5 4 5 4 4 4 3 3 3 4 5 6 6 6 6 7 8 9
5 2 3 4 4 4 5 2 4 15 19 19 19 19 18 15 11 8 6 5 5 7 8 10 9 7 7 6 5 5 6 5 5 4 4 3 3 2 3 3 3 3 4 5 5 5 6 6 7
4 2 3 2 2 2 3 4 8 16 17 17 16 16 14 13 12 10 8 5 1 3 4 6 7 8 7 6 5 4 5 6 5 4 4 4 4 3 4 4 3 3 3 3 3 3 4 5 6
6 4 3 0 1 1 1 3 6 11 13 13 13 12 11 9 8 6 4 4 6 4 4 5 7 7 7 7 5 5 5 5 6 5 5 5 4 4 5 4 4 4 3 3 3 2 2 3 4
3 2 1 1 2 1 2 2 8 10 11 11 12 11 9 8 5 3 4 7 8 8 7 6 6 7 6 6 6 6 6 6 6 6 6 5 5 5 5 5 4 4 5 4 4 3 3 3 3
Wind_Direction
298 299 136 98 54 56 114 184 141 94 63 72 87 91 93 83 104 135 137 152 143 151 160 158 155 149 142 136 132 130 131 131 130 128 124 119 115 111 107 103 100 98 98 97 98 100 102 103 105
306 308 118 71 80 83 125 184 126 149 133 117 94 98 93 81 100 112 122 145 146 151 156 157 158 154 149 144 139 135 134 133 132 131 129 125 122 118 115 112 108 107 106 103 104 104 104 103 102
293 254 79 63 103 152 170 200 160 136 116 124 95 74 94 123 123 130 146 144 145 149 153 157 158 157 155 151 146 141 138 135 134 134 135 132 128 123 118 116 114 113 113 109 108 107 106 104 101
25 41 49 57 326 204 178 201 163 117 89 95 101 65 69 133 143 136 143 146 147 150 153 157 157 158 158 155 152 149 146 141 138 138 139 138 134 128 123 121 121 120 119 117 113 111 109 106 101
76 67 46 9 295 264 185 185 143 130 122 97 96 85 54 71 122 136 146 147 146 148 153 158 158 159 159 159 158 156 154 150 146 144 143 142 140 134 128 126 128 128 128 128 126 121 116 109 100
57 64 60 325 300 297 299 115 94 93 110 108 104 106 110 136 132 141 146 148 147 149 152 157 159 161 162 162 162 161 159 157 154 151 148 146 144 140 133 131 134 135 136 139 141 138 132 118 89
94 81 55 301 300 294 207 110 96 111 134 147 132 106 125 159 149 144 145 145 146 148 150 150 158 163 165 165 164 162 161 161 158 154 151 149 148 145 141 141 143 141 142 147 152 158 165 178 302
117 101 104 305 289 279 291 90 128 127 142 140 130 134 157 176 151 141 142 143 146 150 154 154 156 160 163 166 166 163 163 163 161 157 155 154 154 152 151 151 154 152 153 157 163 172 185 208 264
85 86 158 242 270 284 309 10 11 121 126 141 139 148 158 155 144 140 142 142 152 160 164 163 163 162 161 163 168 164 165 166 163 161 161 156 152 154 157 163 169 166 164 166 173 185 203 235 336
98 137 200 211 248 270 299 289 199 86 96 82 84 108 142 150 151 154 159 164 169 173 176 172 171 167 165 169 160 160 163 165 163 164 161 156 157 163 170 178 182 182 178 179 188 219 275 317 7
155 181 198 209 237 259 286 291 235 126 150 164 151 151 156 161 164 165 170 175 179 179 180 178 174 172 171 163 157 159 159 164 169 169 164 160 167 178 175 184 195 199 198 201 230 263 280 284 327
258 237 204 215 219 228 251 295 298 199 197 177 165 162 166 172 176 176 177 182 181 179 182 180 176 174 176 164 166 166 165 174 180 182 174 165 166 171 177 189 205 214 220 228 250 256 251 245 228
287 279 276 237 223 236 256 258 252 259 222 164 166 168 175 181 184 184 183 182 180 182 183 179 176 175 174 168 173 175 179 188 192 188 185 176 170 177 184 194 209 222 229 236 249 248 192 138 137
273 296 299 302 302 292 267 271 260 267 275 165 174 183 187 188 187 184 184 184 183 184 182 178 176 175 173 175 178 182 185 191 196 194 190 186 181 182 185 193 208 225 227 225 209 195 138 115 123
308 318 317 339 338 306 284 279 264 291 321 199 188 197 200 199 191 188 187 185 185 184 180 180 178 175 176 179 183 184 187 190 196 201 194 190 188 191 189 193 203 223 228 204 167 155 121 111 117
334 345 321 342 2 333 279 253 276 348 348 304 227 216 216 214 204 195 189 185 182 180 181 183 182 178 179 180 184 184 186 188 196 199 194 189 190 193 191 194 201 209 207 171 155 151 121 113 119
355 316 296 309 2 348 16 263 295 330 350 335 293 251 240 230 221 203 189 184 180 181 182 183 181 179 181 181 182 182 182 187 192 192 190 187 190 192 189 194 198 193 178 169 166 156 139 136 138
272 288 292 290 317 338 308 280 292 304 307 301 299 277 261 248 233 207 190 183 180 180 181 182 178 176 173 168 161 164 175 185 187 188 193 186 187 194 190 192 195 183 170 170 165 153 141 148 155
212 241 268 263 261 296 275 278 284 286 281 286 295 295 278 258 257 211 187 181 176 176 175 177 171 168 162 157 161 166 177 180 188 194 197 189 177 188 188 197 197 189 180 176 164 144 142 140 127
217 255 269 275 261 280 282 279 275 266 253 250 260 271 274 260 253 209 182 176 174 172 170 169 165 160 159 159 158 156 148 158 175 182 192 199 181 176 181 187 195 201 188 175 167 148 143 152 143
244 232 238 252 315 330 313 302 296 287 272 267 258 251 258 245 221 196 175 171 167 167 165 161 152 145 140 135 125 111 94 90 120 184 207 212 192 183 178 183 189 204 201 190 180 166 153 163 171
255 240 216 214 348 302 2 303 296 300 314 306 292 280 258 237 188 164 150 146 153 154 146 140 137 133 135 138 143 148 157 170 189 189 208 228 216 195 188 186 184 191 201 201 196 178 165 157 167
240 259 198 178 165 300 272 235 292 331 335 330 325 317 288 185 150 142 138 133 126 123 126 128 126 128 134 137 144 146 151 169 173 180 211 231 233 214 195 191 188 191 196 204 204 186 178 168 165
32 37 36 53 82 285 244 205 295 353 346 346 350 351 348 172 156 147 142 135 128 121 122 129 135 140 143 142 148 154 161 167 173 192 213 230 236 229 206 193 196 198 198 203 205 191 185 188 175
28 52 7 345 345 252 254 207 322 0 10 8 3 1 8 36 104 143 145 142 139 140 149 154 157 158 159 157 164 170 175 178 191 202 213 216 222 228 216 190 193 196 200 200 194 191 193 196 194
320 134 169 248 254 287 306 241 64 8 13 15 13 10 12 20 35 81 131 142 141 146 153 161 166 167 166 168 178 184 186 183 197 209 207 209 211 216 202 182 187 191 191 195 193 198 204 204 207
341 354 166 191 250 262 277 323 28 7 11 9 8 10 11 9 18 35 43 69 117 148 166 171 171 167 175 181 185 197 198 191 196 202 197 194 192 185 165 158 163 168 173 184 188 207 214 208 213
26 28 50 118 206 255 322 32 359 352 352 352 355 358 359 5 11 20 27 34 315 207 182 174 174 178 183 185 191 196 194 187 183 173 173 171 172 157 146 145 150 151 149 153 167 193 208 210 219
5 29 25 259 159 148 17 37 356 337 331 329 336 340 343 356 13 18 355 304 268 253 219 200 190 186 186 183 178 169 167 164 161 170 177 174 173 173 172 172 171 175 177 175 174 193 196 210 225
55 55 57 87 18 26 110 59 343 329 320 319 322 326 331 339 335 314 272 261 264 254 239 221 201 192 191 180 166 165 159 159 165 178 187 184 182 188 190 187 187 193 196 195 195 208 216 227 235
Height
1497 1496 1495 1495 1498 1509 1509 1501 1493 1490 1489 1489 1488 1490 1495 1500 1503 1510 1507 1508 1511 1512 1514 1516 1518 1520 1521 1522 1522 1523 1524 1525 1526 1527 1528 1529 1530 1531 1531 1532 1532 1533 1533 1533 1533 1534 1534 1534 1535
1496 1495 1496 1495 1506 1520 1511 1497 1492 1488 1489 1490 1491 1493 1496 1500 1501 1503 1505 1508 1511 1512 1514 1516 1518 1519 1521 1522 1522 1523 1524 1525 1526 1527 1528 1529 1530 1531 1531 1532 1533 1533 1534 1534 1534 1535 1535 1535 1535
1495 1494 1495 1497 1506 1513 1506 1494 1489 1486 1488 1488 1492 1495 1497 1501 1502 1503 1505 1509 1511 1512 1514 1516 1518 1519 1521 1522 1523 1524 1525 1526 1527 1528 1529 1530 1531 1532 1532 1532 1533 1533 1534 1535 1535 1536 1536 1536 1536
1495 1495 1495 1502 1504 1497 1492 1489 1485 1487 1489 1489 1491 1496 1500 1502 1502 1503 1506 1509 1511 1513 1514 1516 1518 1519 1520 1522 1523 1524 1525 1526 1527 1528 1529 1530 1531 1532 1532 1533 1533 1534 1535 1535 1536 1537 1537 1537 1538
1495 1495 1502 1508 1503 1492 1487 1485 1484 1486 1489 1491 1492 1498 1502 1503 1503 1504 1506 1509 1511 1513 1514 1516 1518 1519 1520 1521 1523 1524 1525 1526 1527 1528 1529 1530 1531 1532 1533 1533 1534 1534 1535 1536 1537 1537 1538 1538 1539
1496 1497 1511 1515 1505 1493 1487 1485 1485 1487 1490 1493 1494 1499 1503 1505 1504 1506 1508 1510 1512 1513 1515 1516 1518 1519 1520 1521 1523 1524 1525 1526 1527 1528 1530 1531 1531 1532 1533 1533 1534 1535 1535 1536 1537 1538 1539 1539 1540
1497 1503 1511 1511 1507 1496 1488 1485 1485 1488 1490 1492 1493 1499 1504 1506 1506 1507 1509 1511 1513 1514 1515 1516 1518 1519 1520 1521 1522 1524 1525 1526 1527 1529 1530 1531 1532 1532 1533 1534 1534 1535 1536 1537 1538 1539 1539 1540 1540
1497 1503 1511 1511 1507 1498 1487 1485 1485 1487 1489 1492 1492 1496 1501 1504 1506 1508 1510 1512 1513 1514 1515 1516 1517 1518 1520 1521 1522 1523 1525 1526 1527 1529 1530 1531 1532 1533 1533 1534 1535 1536 1537 1538 1538 1539 1539 1540 1540
1497 1508 1515 1510 1506 1498 1489 1487 1486 1487 1488 1491 1491 1492 1495 1501 1505 1507 1510 1512 1513 1514 1515 1516 1517 1518 1519 1520 1522 1523 1524 1526 1527 1529 1530 1531 1532 1533 1534 1534 1535 1536 1537 1538 1539 1540 1540 1540 1541
1497 1509 1507 1502 1499 1495 1491 1488 1487 1487 1489 1491 1492 1494 1497 1500 1503 1505 1507 1509 1511 1513 1514 1515 1516 1517 1519 1520 1521 1523 1524 1525 1527 1529 1530 1532 1533 1534 1535 1535 1536 1537 1538 1539 1540 1541 1541 1542 1542
1495 1501 1498 1497 1495 1492 1491 1488 1486 1487 1490 1490 1490 1493 1496 1499 1501 1503 1505 1507 1508 1510 1512 1514 1515 1517 1518 1520 1521 1522 1524 1525 1527 1528 1530 1531 1533 1534 1535 1536 1537 1538 1539 1540 1541 1542 1542 1543 1542
1493 1492 1493 1492 1491 1490 1489 1487 1486 1485 1486 1486 1487 1489 1492 1495 1498 1500 1502 1505 1507 1509 1510 1512 1514 1516 1517 1519 1521 1522 1523 1525 1526 1528 1530 1531 1533 1534 1535 1536 1537 1538 1540 1541 1541 1541 1542 1542 1543
1492 1490 1489 1489 1489 1488 1486 1485 1485 1484 1484 1485 1486 1488 1489 1491 1494 1497 1499 1502 1505 1506 1508 1510 1512 1514 1516 1518 1520 1521 1523 1525 1526 1528 1529 1531 1532 1534 1535 1537 1538 1539 1540 1541 1541 1541 1541 1542 1543
1491 1489 1488 1487 1487 1486 1486 1484 1484 1483 1484 1485 1485 1486 1486 1488 1490 1494 1497 1499 1502 1504 1505 1508 1510 1512 1515 1517 1519 1520 1522 1524 1526 1527 1528 1530 1532 1534 1535 1537 1539 1540 1540 1541 1542 1542 1542 1543 1543
1490 1490 1488 1487 1487 1485 1485 1486 1483 1483 1482 1483 1484 1485 1485 1485 1487 1489 1491 1494 1498 1501 1503 1505 1507 1510 1512 1515 1517 1519 1520 1522 1524 1526 1528 1529 1531 1533 1535 1537 1538 1539 1540 1541 1542 1543 1544 1544 1544
1491 1494 1499 1493 1489 1486 1489 1493 1483 1482 1481 1480 1482 1483 1483 1483 1484 1485 1488 1491 1494 1498 1500 1503 1505 1507 1510 1513 1515 1518 1519 1521 1523 1525 1526 1528 1529 1531 1533 1535 1536 1538 1539 1541 1542 1543 1544 1545 1545
1500 1505 1503 1496 1491 1489 1490 1490 1482 1480 1479 1478 1478 1479 1480 1480 1481 1482 1484 1487 1491 1494 1497 1500 1502 1505 1508 1511 1513 1516 1518 1519 1521 1523 1524 1526 1527 1529 1531 1533 1534 1536 1538 1539 1541 1542 1543 1544 1545
1510 1508 1504 1500 1493 1491 1491 1489 1480 1478 1477 1475 1473 1474 1476 1476 1476 1478 1480 1483 1487 1491 1494 1497 1499 1502 1505 1508 1511 1513 1515 1517 1519 1521 1522 1524 1525 1527 1529 1530 1532 1534 1535 1537 1539 1540 1542 1543 1545
1502 1504 1504 1498 1492 1492 1491 1487 1479 1475 1474 1472 1469 1469 1470 1472 1473 1474 1476 1480 1484 1488 1491 1494 1496 1499 1502 1505 1507 1509 1511 1513 1515 1518 1520 1522 1523 1525 1526 1527 1529 1531 1532 1534 1536 1538 1540 1542 1543
1499 1502 1502 1495 1491 1490 1491 1486 1477 1472 1471 1468 1466 1465 1465 1467 1469 1470 1472 1476 1479 1483 1487 1490 1494 1496 1499 1502 1505 1507 1509 1510 1512 1515 1517 1519 1520 1522 1523 1524 1526 1527 1529 1531 1533 1535 1536 1539 1540
1497 1500 1498 1497 1493 1491 1494 1490 1479 1470 1467 1465 1463 1461 1461 1462 1464 1466 1469 1472 1476 1479 1483 1487 1491 1494 1497 1500 1503 1505 1507 1508 1510 1511 1513 1515 1517 1519 1520 1521 1522 1524 1525 1527 1528 1530 1533 1535 1537
1499 1489 1489 1492 1500 1504 1500 1509 1487 1475 1469 1465 1461 1459 1458 1459 1460 1462 1465 1469 1473 1477 1481 1485 1489 1493 1496 1499 1501 1502 1503 1504 1506 1508 1510 1513 1514 1515 1516 1518 1519 1520 1521 1523 1525 1526 1528 1531 1533
1490 1484 1487 1492 1499 1506 1502 1508 1495 1480 1477 1470 1464 1460 1457 1456 1457 1461 1465 1468 1473 1477 1481 1485 1489 1492 1494 1496 1498 1499 1501 1502 1504 1506 1508 1509 1511 1512 1513 1514 1514 1515 1516 1518 1520 1522 1524 1526 1529
1485 1488 1492 1499 1505 1514 1503 1507 1502 1492 1486 1477 1468 1463 1458 1456 1457 1460 1464 1469 1473 1478 1483 1486 1488 1490 1492 1494 1495 1497 1498 1500 1502 1504 1505 1507 1508 1509 1510 1510 1511 1511 1512 1514 1516 1517 1519 1521 1524
1490 1502 1516 1517 1519 1515 1497 1500 1503 1493 1487 1483 1476 1468 1462 1459 1459 1461 1463 1467 1471 1476 1481 1485 1487 1489 1490 1492 1493 1495 1497 1499 1501 1502 1503 1505 1506 1506 1507 1507 1507 1508 1508 1509 1511 1513 1514 1515 1518
1495 1500 1518 1526 1523 1512 1498 1500 1500 1494 1488 1483 1479 1473 1467 1463 1462 1463 1464 1466 1469 1474 1479 1482 1485 1487 1489 1490 1492 1494 1496 1498 1499 1501 1502 1503 1504 1504 1504 1504 1504 1504 1505 1505 1506 1508 1509 1511 1513
1500 1502 1503 1513 1513 1514 1505 1499 1495 1490 1487 1484 1482 1477 1474 1470 1467 1466 1467 1468 1471 1475 1478 1482 1484 1486 1488 1490 1492 1494 1495 1497 1498 1500 1501 1501 1502 1502 1502 1502 1501 1501 1502 1502 1503 1504 1505 1506 1508
1503 1505 1510 1513 1515 1517 1508 1508 1511 1501 1496 1491 1487 1484 1479 1475 1472 1470 1470 1472 1475 1477 1480 1483 1485 1487 1489 1491 1492 1494 1495 1497 1498 1499 1500 1500 1500 1500 1500 1500 1499 1499 1499 1499 1500 1500 1501 1502 1503
1509 1510 1512 1514 1513 1516 1519 1520 1511 1507 1501 1495 1490 1486 1482 1479 1476 1476 1476 1476 1476 1479 1481 1483 1485 1487 1489 1491 1492 1494 1495 1496 1497 1498 1499 1499 1499 1499 1499 1498 1498 1498 1498 1498 1498 1498 1498 1498 1499
1510 1512 1515 1519 1518 1515 1517 1524 1510 1507 1501 1496 1490 1486 1482 1480 1479 1478 1477 1478 1478 1479 1481 1483 1485 1487 1489 1491 1492 1493 1494 1496 1496 1497 1498 1498 1498 1498 1498 1497 1497 1497 1497 1497 1497 1496 1496 1496 1496